Home   Weather   Idar-Oberstein   Past weeks

Flag for Germany Past Weather in Idar-Oberstein, Rhineland-Palatinate, Germany — Yesterday and Last 2 Weeks

Now
30 °F

Clear.


Feels Like: 23 °F
Forecast: 23 / 39 °F
Wind: 8 mph from South

Location: Hahn

Current Time: Dec 7, 2016 at 11:14:19 pm

Latest Report: Dec 7, 2016 at 10:20 pm


Visibility: 10 mi

Pressure: 30.48 "Hg

Humidity: 100%

Dew Point: 30 °F

Location of Idar-ObersteinLocation

Past Weather in Idar-Oberstein — Graph

°F

Idar-Oberstein Temperature Yesterday

Maximum temperature yesterday: 37 °F (at 2:20 pm)
Minimum temperature yesterday: 19 °F (at 12:20 am)
Average temperature yesterday: 24 °F

High & Low Weather Summary for the Past Weeks

 TemperatureHumidityPressure
High54 °F (Nov 23, 1:20 pm)100% (Nov 22, 9:50 pm)30.48 "Hg (Nov 22, 9:50 pm)
Low19 °F (Dec 6, 12:20 am)48% (Nov 29, 2:50 pm)29.95 "Hg (Nov 22, 9:50 pm)
Average34 °F88%30.22 "Hg
* Reported Nov 22 9:50 pm — Dec 7 9:50 pm, Idar-Oberstein, Weather by CustomWeather, © 2016

Note: Actual official high and low records may vary slightly from our data, if they occured in-between our weather recording intervals... More about our weather records

Advertising

Idar-Oberstein Weather History for the Previous 24 Hours

Scroll right to see more
 ConditionsComfort  
Time TempWeatherWind HumidityBarometerVisibility
9:50 pm
Wed, Dec 7
30 °FClear.7 mph100%30.48 "Hg10 mi
9:20 pm30 °FClear.5 mph100%30.48 "Hg10 mi
8:50 pm32 °FPassing clouds.3 mph100%30.48 "HgN/A
8:20 pm32 °FPassing clouds.3 mph100%30.48 "HgN/A
7:50 pm30 °FPassing clouds.5 mph100%30.48 "HgN/A
7:20 pm28 °FClear.12 mph100%30.48 "Hg10 mi
6:50 pm30 °FClear.9 mph100%30.48 "Hg10 mi
6:20 pm30 °FClear.6 mph100%30.48 "Hg10 mi
5:50 pm30 °FPassing clouds.7 mph100%30.48 "HgN/A
5:20 pm30 °FClear.3 mph100%30.48 "Hg10 mi
4:50 pm30 °FClear.9 mph100%30.45 "Hg10 mi
4:20 pm32 °FPassing clouds.8 mph100%30.45 "HgN/A
3:50 pm34 °FSunny.7 mph100%30.45 "Hg10 mi
3:20 pm36 °FPassing clouds.3 mph100%30.45 "HgN/A
2:50 pm32 °FSunny.2 mph100%30.45 "Hg10 mi
2:20 pm30 °FSunny.6 mph100%30.45 "Hg10 mi
1:50 pm30 °FSunny.6 mph100%30.45 "Hg10 mi
1:20 pm30 °FSunny.9 mph100%30.45 "Hg10 mi
12:50 pm30 °FSunny.8 mph100%30.48 "Hg10 mi
12:20 pm30 °FSunny.8 mph100%30.48 "Hg10 mi
11:50 am28 °FSunny.8 mph100%30.48 "Hg10 mi
11:20 am27 °FSunny.8 mph100%30.48 "Hg10 mi
10:50 am27 °FSunny.9 mph100%30.48 "Hg10 mi
10:20 am25 °FLight fog.10 mph100%30.48 "HgN/A
9:50 am25 °FLight fog.12 mph100%30.48 "HgN/A
9:20 am23 °FLight fog.14 mph100%30.45 "HgN/A
8:50 am23 °FLight fog.14 mph100%30.45 "HgN/A
8:20 am23 °FLight fog.14 mph100%30.45 "HgN/A
7:50 am21 °FClear.14 mph100%30.45 "Hg10 mi
7:20 am23 °FClear.14 mph100%30.45 "Hg5 mi
6:50 am23 °FClear.16 mph100%30.45 "Hg5 mi
6:20 am23 °FIce fog.14 mph100%30.45 "Hg1 mi
5:50 am21 °FLight fog.13 mph100%30.48 "Hg1 mi
5:20 am21 °FIce fog.14 mph100%30.45 "Hg2 mi
4:50 am21 °FIce fog.14 mph100%30.48 "Hg2 mi
4:20 am21 °FIce fog.13 mph100%30.45 "Hg2 mi
3:50 am21 °FIce fog.15 mph100%30.48 "Hg1 mi
3:20 am21 °FIce fog.14 mph100%30.45 "Hg1 mi
2:50 am21 °FClear.13 mph100%30.45 "Hg5 mi
2:20 am21 °FClear.10 mph100%30.48 "Hg4 mi
1:50 am21 °FIce fog.10 mph100%30.48 "Hg2 mi
1:20 am21 °FLight fog.13 mph100%30.45 "Hg1 mi
12:50 am19 °FLight fog.12 mph100%30.45 "Hg1 mi
11:50 pm
Tue, Dec 6
19 °FLight fog.13 mph100%30.45 "Hg1 mi
11:20 pm19 °FLight fog.14 mph100%30.45 "Hg1 mi
Weather by CustomWeather, © 2016

See weather overviewHow to use our weather pages